カタログに戻る

DELTA 1 DEB

運用中SSO
NORAD 8959·DEBRIS·🇺🇸 United States

打ち上げ Jan 22, 1975 から Vandenberg Space Force Base

Loading…

次のパス (今後24時間)

TLE

最新Source: Space-Track

元期: Sep 14, 2026, 09:54 UTC

1 08959U 75004AR  26257.41269645  .00000276  00000-0  86141-4 0  9995
2 08959  98.6936 234.4198 0063102 153.8103 206.6303 14.47550955655414

AllMySatでDELTA 1 DEBをリアルタイム追跡

Download on the App Store